Location: Cruquius
(52.3348°N, 4.6319°E)
Time: 15:06:06
(UTC+00:00)

NOSS 3-3 (C) - Pass Details

Date: 29 September 2021
Orbit: 801 x 1411 km, 63.4° (Epoch: 05 October)

Event Time Altitude Azimuth Distance (km) Brightness Sun altitude
Rises 18:50:39 0° 313° (NW) 3,902 8.3 -14.1°
Reaches altitude 10° 18:53:10 10° 312° (NW) 3,025 7.6 -14.5°
Maximum altitude 19:00:30 77° 229° (SW) 1,291 4.7 -15.6°
Enters shadow 19:08:06 13° 146° (SE) 3,160 6.2 -16.7°
